wroom.ru alexa rank chart, wroom.ru alexa rank daily changes

wroom.ru alexa rank chart, wroom.ru alexa rank daily changes

wroom.ru
Actual rank:
58 608

RANK HISTORY

Date Rank Diff
2017/10/17 58 608 +164
2017/10/16 58 444 -1 041
2017/10/14 59 485 -78
2017/10/13 59 563 -29
2017/10/12 59 592 -789
2017/10/11 60 381 -94
2017/10/10 60 475 +37
2017/10/09 60 438 -466
2017/10/08 60 904 +816
2017/10/07 60 088 +427
2017/10/06 59 661 -257
2017/10/05 59 918 +798
2017/10/04 59 120 -2
2017/10/03 59 122 -523
2017/10/02 59 645 -281
2017/10/01 59 926 +181
2017/09/30 59 745 -193
2017/09/29 59 938 -25
2017/09/28 59 963 +410
2017/09/27 59 553 +264
2017/09/26 59 289 +288
2017/09/25 59 001 -25
2017/09/24 59 026 -151
2017/09/23 59 177 +5
2017/09/22 59 172 -280
2017/09/20 59 452 -34
2017/09/19 59 486 -170
2017/09/18 59 656 -776
2017/09/17 60 432 -480
2017/09/16 60 912 +316
2017/09/15 60 596 +181
2017/09/14 60 415 +466
2017/09/13 59 949 +808
2017/09/12 59 141 +50
2017/09/11 59 091 +350
2017/09/10 58 741 -224
2017/09/09 58 965 +20
2017/09/08 58 945 -346
2017/09/07 59 291 +319
2017/09/06 58 972 -665
2017/09/05 59 637 -1 241
2017/09/04 60 878 +1 024
2017/09/03 59 854 -73
2017/09/02 59 927 -519
2017/09/01 60 446 +71
2017/08/31 60 375 -356
2017/08/30 60 731 -125
2017/08/29 60 856 -279
2017/08/28 61 135 -501
2017/08/27 61 636 -386
2017/08/26 62 022 -763
2017/08/25 62 785 +147
2017/08/24 62 638 +63
2017/08/23 62 575 +133
2017/08/22 62 442 -95
2017/08/21 62 537 +65
2017/08/20 62 472 -4
2017/08/19 62 476 -154
2017/08/18 62 630

WIDGET FOR YOUR SITE

DOMAINS WITH THE NEAREST RANK

Domain Rank
howard.edu 58 603
reverepress.com 58 604
ezedealer.com 58 605
mcxindia.com 58 606
bpm-power.com 58 607
wroom.ru 58 608
appartager.com 58 609
sexgayjapan.com 58 610
all4women.co.za 58 611
gamesforthebrain.com 58 612
miuipolska.pl 58 613

DOMAINS WITH THE NEAREST RANK BY TLD .ru

Domain Rank
biznes-prost.ru 58 546
autoteka.ru 58 554
love-sims.ru 58 574
regruhosting.ru 58 578
yahooeu.ru 58 592
wroom.ru 58 608
likefilmdb.ru 58 727
predanie.ru 58 776
vzsar.ru 58 778
nozhikov.ru 58 838
farap.ru 58 862